Time,TemperatureF,DewpointF,PressureIn,WindDirection,WindDirectionDegrees,WindSpeedMPH,WindSpeedGustMPH,Humidity,HourlyPrecipIn,Conditions,Clouds,dailyrainin,SoftwareType,DateUTC
2013-06-29 00:01:00,72.1,64.2,29.56,North,0,0.0,0.0,76,0.00,FEW,,0.00,WeatherDisplay:10.37,2013-06-29 04:01:00,
2013-06-29 00:02:00,72.0,64.4,29.56,North,0,0.0,0.0,77,0.00,FEW,,0.00,WeatherDisplay:10.37,2013-06-29 04:02:00,
2013-06-29 00:07:00,71.8,64.2,29.57,North,0,0.0,0.0,77,0.00,FEW,,0.00,WeatherDisplay:10.37,2013-06-29 04:07:00,
2013-06-29 00:12:00,71.4,63.8,29.57,North,0,0.0,0.0,77,0.00,FEW,,0.00,WeatherDisplay:10.37,2013-06-29 04:12:00,
2013-06-29 00:17:00,71.2,64.0,29.57,North,0,0.0,0.0,78,0.00,BKN,,0.00,WeatherDisplay:10.37,2013-06-29 04:17:00,
2013-06-29 00:22:00,71.1,64.2,29.57,SW,225,0.0,0.0,79,0.00,BKN,,0.00,WeatherDisplay:10.37,2013-06-29 04:22:00,
2013-06-29 00:27:00,70.7,64.2,29.57,West,270,1.1,1.1,80,0.00,BKN,,0.00,WeatherDisplay:10.37,2013-06-29 04:27:00,
2013-06-29 00:32:00,70.5,64.4,29.56,West,270,1.1,0.0,81,0.00,BKN,,0.00,WeatherDisplay:10.37,2013-06-29 04:32:00,
2013-06-29 00:37:00,70.3,64.6,29.56,SW,225,0.0,0.0,82,0.00,BKN,,0.00,WeatherDisplay:10.37,2013-06-29 04:37:00,
2013-06-29 00:42:00,70.0,64.6,29.56,SW,225,0.0,0.0,83,0.00,BKN,,0.00,WeatherDisplay:10.37,2013-06-29 04:42:00,
2013-06-29 00:47:00,69.8,64.4,29.56,SE,135,1.1,0.0,83,0.00,BKN,,0.00,WeatherDisplay:10.37,2013-06-29 04:47:00,
2013-06-29 00:52:00,69.6,64.6,29.57,SE,135,1.1,0.0,84,0.00,BKN,,0.00,WeatherDisplay:10.37,2013-06-29 04:52:00,
2013-06-29 00:57:00,69.6,64.6,29.57,SE,135,0.0,0.0,84,0.00,BKN,,0.00,WeatherDisplay:10.37,2013-06-29 04:57:00,
2013-06-29 01:02:00,69.4,64.4,29.57,SE,135,0.0,0.0,84,0.00,CLR,,0.00,WeatherDisplay:10.37,2013-06-29 05:02:00,
2013-06-29 01:07:00,69.4,64.7,29.56,SE,135,0.0,0.0,85,0.00,CLR,,0.00,WeatherDisplay:10.37,2013-06-29 05:07:00,
2013-06-29 01:12:00,69.3,64.6,29.57,SE,135,0.0,0.0,85,0.00,CLR,,0.00,WeatherDisplay:10.37,2013-06-29 05:12:00,
2013-06-29 01:17:00,69.3,64.6,29.57,SE,135,0.0,0.0,85,0.00,CLR,,0.00,WeatherDisplay:10.37,2013-06-29 05:17:00,
2013-06-29 01:22:00,69.3,64.6,29.57,SE,135,1.1,0.0,85,0.00,CLR,,0.00,WeatherDisplay:10.37,2013-06-29 05:22:00,
2013-06-29 01:27:00,69.3,64.9,29.57,SE,135,0.0,0.0,86,0.00,CLR,,0.00,WeatherDisplay:10.37,2013-06-29 05:27:00,
2013-06-29 01:32:00,69.4,65.1,29.57,SE,135,0.0,0.0,86,0.00,CLR,,0.00,WeatherDisplay:10.37,2013-06-29 05:32:00,
2013-06-29 01:37:00,69.4,64.7,29.56,SE,135,0.0,0.0,85,0.00,CLR,,0.00,WeatherDisplay:10.37,2013-06-29 05:37:00,
2013-06-29 01:42:00,69.4,64.7,29.55,SE,135,0.0,0.0,85,0.00,CLR,,0.00,WeatherDisplay:10.37,2013-06-29 05:42:00,
2013-06-29 01:47:00,69.4,65.1,29.55,SE,135,0.0,0.0,86,0.00,CLR,,0.00,WeatherDisplay:10.37,2013-06-29 05:47:00,
2013-06-29 01:52:00,69.4,64.7,29.55,SE,135,0.0,0.0,85,0.00,CLR,,0.00,WeatherDisplay:10.37,2013-06-29 05:52:00,
2013-06-29 01:57:00,69.4,64.7,29.54,SE,135,1.1,0.0,85,0.00,CLR,,0.00,WeatherDisplay:10.37,2013-06-29 05:57:00,
2013-06-29 02:02:00,69.4,64.7,29.54,East,90,0.0,0.0,85,0.00,CLR,,0.00,WeatherDisplay:10.37,2013-06-29 06:02:00,
2013-06-29 02:07:00,69.4,64.7,29.54,East,90,0.0,0.0,85,0.00,OVC,,0.00,WeatherDisplay:10.37,2013-06-29 06:07:00,
2013-06-29 02:12:00,69.4,64.7,29.54,West,270,1.1,0.0,85,0.00,OVC,,0.00,WeatherDisplay:10.37,2013-06-29 06:12:00,
2013-06-29 02:17:00,69.6,64.6,29.54,West,270,1.1,0.0,84,0.00,OVC,,0.00,WeatherDisplay:10.37,2013-06-29 06:17:00,
2013-06-29 02:22:00,69.4,64.4,29.54,West,270,0.0,0.0,84,0.00,OVC,,0.00,WeatherDisplay:10.37,2013-06-29 06:22:00,
2013-06-29 02:27:00,69.4,64.4,29.54,West,270,0.0,0.0,84,0.00,OVC,,0.00,WeatherDisplay:10.37,2013-06-29 06:27:00,
2013-06-29 02:32:00,69.4,64.4,29.54,West,270,0.0,0.0,84,0.00,OVC,,0.00,WeatherDisplay:10.37,2013-06-29 06:32:00,
2013-06-29 02:37:00,69.3,63.9,29.54,West,270,0.0,0.0,83,0.00,OVC,,0.00,WeatherDisplay:10.37,2013-06-29 06:37:00,
2013-06-29 02:42:00,69.3,63.5,29.54,West,270,0.0,0.0,82,0.00,OVC,,0.00,WeatherDisplay:10.37,2013-06-29 06:42:00,
2013-06-29 02:47:00,69.3,63.5,29.54,West,270,0.0,0.0,82,0.00,OVC,,0.00,WeatherDisplay:10.37,2013-06-29 06:47:00,
2013-06-29 02:52:00,69.3,63.5,29.54,SW,225,1.1,0.0,82,0.00,OVC,,0.00,WeatherDisplay:10.37,2013-06-29 06:52:00,
2013-06-29 02:57:00,69.4,63.4,29.55,West,270,1.1,0.0,81,0.00,OVC,,0.00,WeatherDisplay:10.37,2013-06-29 06:57:00,
2013-06-29 03:02:00,69.4,63.4,29.55,SW,225,0.0,0.0,81,0.00,BKN,,0.00,WeatherDisplay:10.37,2013-06-29 07:02:00,
2013-06-29 03:07:00,69.6,63.5,29.55,SW,225,1.1,0.0,81,0.00,BKN,,0.00,WeatherDisplay:10.37,2013-06-29 07:07:00,
2013-06-29 03:12:00,69.4,63.4,29.55,SW,225,0.0,0.0,81,0.00,BKN,,0.00,WeatherDisplay:10.37,2013-06-29 07:12:00,
2013-06-29 03:17:00,69.4,63.0,29.55,SW,225,0.0,0.0,80,0.00,BKN,,0.00,WeatherDisplay:10.37,2013-06-29 07:17:00,
2013-06-29 03:23:00,69.4,63.0,29.54,SW,225,0.0,0.0,80,0.00,BKN,,0.00,WeatherDisplay:10.37,2013-06-29 07:23:00,
2013-06-29 03:28:00,69.4,63.0,29.55,SW,225,0.0,0.0,80,0.00,BKN,,0.00,WeatherDisplay:10.37,2013-06-29 07:28:00,
2013-06-29 03:33:00,69.3,63.2,29.54,SW,225,0.0,0.0,81,0.00,BKN,,0.00,WeatherDisplay:10.37,2013-06-29 07:33:00,
2013-06-29 03:38:00,69.3,63.2,29.54,SW,225,0.0,0.0,81,0.00,BKN,,0.00,WeatherDisplay:10.37,2013-06-29 07:38:00,
2013-06-29 03:43:00,69.1,63.0,29.54,SW,225,0.0,0.0,81,0.00,BKN,,0.00,WeatherDisplay:10.37,2013-06-29 07:43:00,
2013-06-29 03:48:00,68.9,62.8,29.54,SW,225,0.0,0.0,81,0.00,BKN,,0.00,WeatherDisplay:10.37,2013-06-29 07:48:00,
2013-06-29 03:53:00,68.7,63.0,29.54,West,270,0.0,0.0,82,0.00,BKN,,0.00,WeatherDisplay:10.37,2013-06-29 07:53:00,
2013-06-29 03:58:00,68.7,63.0,29.54,West,270,0.0,0.0,82,0.00,BKN,,0.00,WeatherDisplay:10.37,2013-06-29 07:58:00,
2013-06-29 04:03:00,68.5,63.2,29.55,West,270,0.0,0.0,83,0.00,OVC,,0.00,WeatherDisplay:10.37,2013-06-29 08:03:00,
2013-06-29 04:08:00,68.5,63.2,29.54,West,270,0.0,0.0,83,0.00,OVC,,0.00,WeatherDisplay:10.37,2013-06-29 08:08:00,
2013-06-29 04:13:00,68.5,63.2,29.54,West,270,0.0,0.0,83,0.00,OVC,,0.00,WeatherDisplay:10.37,2013-06-29 08:13:00,
2013-06-29 04:18:00,68.5,63.2,29.54,South,180,0.0,0.0,83,0.00,OVC,,0.00,WeatherDisplay:10.37,2013-06-29 08:18:00,
2013-06-29 04:23:00,68.2,63.2,29.53,SE,135,0.0,0.0,84,0.00,OVC,,0.00,WeatherDisplay:10.37,2013-06-29 08:23:00,
2013-06-29 04:28:00,68.4,63.7,29.53,East,90,0.0,0.0,85,0.00,OVC,,0.00,WeatherDisplay:10.37,2013-06-29 08:28:00,
2013-06-29 04:33:00,68.2,63.2,29.53,East,90,0.0,0.0,84,0.00,OVC,,0.00,WeatherDisplay:10.37,2013-06-29 08:33:00,
2013-06-29 04:38:00,68.2,63.5,29.53,SE,135,0.0,0.0,85,0.00,OVC,,0.00,WeatherDisplay:10.37,2013-06-29 08:38:00,
2013-06-29 04:43:00,68.2,63.5,29.53,SE,135,0.0,0.0,85,0.00,OVC,,0.00,WeatherDisplay:10.37,2013-06-29 08:43:00,
2013-06-29 04:48:00,68.2,63.5,29.53,SE,135,0.0,0.0,85,0.00,OVC,,0.00,WeatherDisplay:10.37,2013-06-29 08:48:00,
2013-06-29 04:53:00,68.0,63.0,29.53,SE,135,0.0,0.0,84,0.00,OVC,,0.00,WeatherDisplay:10.37,2013-06-29 08:53:00,
2013-06-29 04:58:00,68.2,63.2,29.54,SE,135,0.0,0.0,84,0.00,OVC,,0.00,WeatherDisplay:10.37,2013-06-29 08:58:00,
2013-06-29 05:03:00,68.0,63.0,29.54,SE,135,0.0,0.0,84,0.00,BKN,,0.00,WeatherDisplay:10.37,2013-06-29 09:03:00,
2013-06-29 05:08:00,67.8,63.1,29.54,SE,135,0.0,0.0,85,0.00,BKN,,0.00,WeatherDisplay:10.37,2013-06-29 09:08:00,
2013-06-29 05:13:00,67.8,63.1,29.54,SE,135,0.0,0.0,85,0.00,BKN,,0.00,WeatherDisplay:10.37,2013-06-29 09:13:00,
2013-06-29 05:18:00,67.6,63.0,29.55,SE,135,0.0,0.0,85,0.00,BKN,,0.00,WeatherDisplay:10.37,2013-06-29 09:18:00,
2013-06-29 05:23:00,67.6,63.0,29.55,SE,135,0.0,0.0,85,0.00,BKN,,0.00,WeatherDisplay:10.37,2013-06-29 09:23:00,
2013-06-29 05:28:00,67.5,62.8,29.55,SE,135,0.0,0.0,85,0.00,BKN,,0.00,WeatherDisplay:10.37,2013-06-29 09:28:00,
2013-06-29 05:33:00,67.5,63.1,29.55,SE,135,0.0,0.0,86,0.00,BKN,,0.00,WeatherDisplay:10.37,2013-06-29 09:33:00,
2013-06-29 05:38:00,67.5,63.5,29.55,SE,135,1.1,0.0,87,0.00,BKN,,0.00,WeatherDisplay:10.37,2013-06-29 09:38:00,
2013-06-29 05:43:00,67.5,63.5,29.55,SE,135,1.1,0.0,87,0.00,BKN,,0.00,WeatherDisplay:10.37,2013-06-29 09:43:00,
2013-06-29 05:48:00,67.5,63.5,29.56,West,270,1.1,0.0,87,0.00,BKN,,0.00,WeatherDisplay:10.37,2013-06-29 09:48:00,
2013-06-29 05:53:00,67.3,63.3,29.56,West,270,0.0,0.0,87,0.00,BKN,,0.00,WeatherDisplay:10.37,2013-06-29 09:53:00,
2013-06-29 05:58:00,67.3,63.3,29.56,West,270,0.0,0.0,87,0.00,BKN,,0.00,WeatherDisplay:10.37,2013-06-29 09:58:00,
2013-06-29 06:03:00,67.1,63.1,29.56,West,270,0.0,0.0,87,0.00,CLR,,0.00,WeatherDisplay:10.37,2013-06-29 10:03:00,
2013-06-29 06:08:00,66.9,62.9,29.56,West,270,0.0,0.0,87,0.00,CLR,,0.00,WeatherDisplay:10.37,2013-06-29 10:08:00,
2013-06-29 06:13:00,66.6,62.9,29.56,East,90,0.0,0.0,88,0.00,CLR,,0.00,WeatherDisplay:10.37,2013-06-29 10:13:00,
2013-06-29 06:18:00,66.4,63.0,29.57,East,90,1.6,0.0,89,0.00,CLR,,0.00,WeatherDisplay:10.37,2013-06-29 10:18:00,
2013-06-29 06:23:00,66.0,63.3,29.57,SE,135,1.1,1.1,91,0.00,CLR,,0.00,WeatherDisplay:10.37,2013-06-29 10:23:00,
2013-06-29 06:28:00,66.0,63.3,29.57,SE,135,1.1,0.0,91,0.00,CLR,,0.00,WeatherDisplay:10.37,2013-06-29 10:28:00,
2013-06-29 06:33:00,65.8,63.5,29.58,SE,135,0.0,0.0,92,0.00,CLR,,0.00,WeatherDisplay:10.37,2013-06-29 10:33:00,
2013-06-29 06:38:00,66.0,63.6,29.58,SE,135,0.0,0.0,92,0.00,CLR,,0.00,WeatherDisplay:10.37,2013-06-29 10:38:00,
2013-06-29 06:43:00,66.0,63.6,29.58,SE,135,0.0,0.0,92,0.00,CLR,,0.00,WeatherDisplay:10.37,2013-06-29 10:43:00,
2013-06-29 06:48:00,66.2,63.8,29.58,SE,135,0.0,0.0,92,0.00,CLR,,0.00,WeatherDisplay:10.37,2013-06-29 10:48:00,
2013-06-29 06:53:00,66.6,63.9,29.58,NE,45,0.0,0.0,91,0.00,CLR,,0.00,WeatherDisplay:10.37,2013-06-29 10:53:00,
2013-06-29 06:58:00,66.7,64.0,29.58,NE,45,0.0,0.0,91,0.00,CLR,,0.00,WeatherDisplay:10.37,2013-06-29 10:58:00,
2013-06-29 07:03:00,67.1,64.4,29.58,NE,45,0.0,0.0,91,0.00,CLR,,0.00,WeatherDisplay:10.37,2013-06-29 11:03:00,
2013-06-29 07:08:00,67.6,64.6,29.59,NE,45,0.0,0.0,90,0.00,CLR,,0.00,WeatherDisplay:10.37,2013-06-29 11:08:00,
2013-06-29 07:13:00,68.0,64.6,29.59,NE,45,0.0,0.0,89,0.00,CLR,,0.00,WeatherDisplay:10.37,2013-06-29 11:13:00,
2013-06-29 07:18:00,68.4,64.7,29.59,SE,135,0.0,0.0,88,0.00,CLR,,0.00,WeatherDisplay:10.37,2013-06-29 11:18:00,
2013-06-29 07:23:00,68.9,65.2,29.59,SE,135,0.0,0.0,88,0.00,CLR,,0.00,WeatherDisplay:10.37,2013-06-29 11:23:00,
2013-06-29 07:28:00,70.5,66.5,29.60,SE,135,0.0,0.0,87,0.00,CLR,,0.00,WeatherDisplay:10.37,2013-06-29 11:28:00,
2013-06-29 07:33:00,72.7,65.4,29.60,East,90,1.1,1.1,78,0.00,CLR,,0.00,WeatherDisplay:10.37,2013-06-29 11:33:00,
2013-06-29 07:38:00,74.7,66.2,29.60,North,0,1.1,1.1,75,0.00,CLR,,0.00,WeatherDisplay:10.37,2013-06-29 11:38:00,
2013-06-29 07:43:00,77.5,67.4,29.60,West,270,1.1,0.0,71,0.00,CLR,,0.00,WeatherDisplay:10.37,2013-06-29 11:43:00,
2013-06-29 07:48:00,79.2,67.7,29.60,South,180,1.1,0.0,68,0.00,CLR,,0.00,WeatherDisplay:10.37,2013-06-29 11:48:00,
2013-06-29 07:53:00,80.4,66.7,29.60,SE,135,1.1,0.0,63,0.00,CLR,,0.00,WeatherDisplay:10.37,2013-06-29 11:53:00,
2013-06-29 07:58:00,81.3,65.6,29.61,West,270,2.3,0.0,59,0.00,CLR,,0.00,WeatherDisplay:10.37,2013-06-29 11:58:00,
2013-06-29 08:03:00,82.0,66.3,29.61,SE,135,1.1,0.0,59,0.00,CLR,,0.00,WeatherDisplay:10.37,2013-06-29 12:03:00,
2013-06-29 08:08:00,83.3,66.0,29.60,West,270,1.1,1.1,56,0.00,CLR,,0.00,WeatherDisplay:10.37,2013-06-29 12:08:00,
2013-06-29 08:13:00,82.0,65.3,29.61,West,270,1.1,0.0,57,0.00,CLR,,0.00,WeatherDisplay:10.37,2013-06-29 12:13:00,
2013-06-29 08:18:00,82.9,66.1,29.61,East,90,1.1,0.0,57,0.00,CLR,,0.00,WeatherDisplay:10.37,2013-06-29 12:18:00,
2013-06-29 08:23:00,83.7,65.3,29.61,West,270,1.1,1.1,54,0.00,CLR,,0.00,WeatherDisplay:10.37,2013-06-29 12:23:00,
2013-06-29 08:28:00,84.4,65.4,29.61,East,90,1.1,0.0,53,0.00,CLR,,0.00,WeatherDisplay:10.37,2013-06-29 12:28:00,
2013-06-29 08:33:00,83.8,65.4,29.61,West,270,1.1,0.0,54,0.00,CLR,,0.00,WeatherDisplay:10.37,2013-06-29 12:33:00,
2013-06-29 08:38:00,83.8,65.9,29.61,ENE,68,2.3,2.3,55,0.00,CLR,,0.00,WeatherDisplay:10.37,2013-06-29 12:38:00,
2013-06-29 08:43:00,82.4,66.1,29.61,West,270,3.5,0.0,58,0.00,CLR,,0.00,WeatherDisplay:10.37,2013-06-29 12:43:00,
2013-06-29 08:48:00,82.2,66.0,29.61,West,270,2.3,0.0,58,0.00,CLR,,0.00,WeatherDisplay:10.37,2013-06-29 12:48:00,
2013-06-29 08:53:00,82.9,65.1,29.61,East,90,2.3,2.3,55,0.00,CLR,,0.00,WeatherDisplay:10.37,2013-06-29 12:53:00,
2013-06-29 08:58:00,83.7,65.3,29.61,West,270,3.5,3.5,54,0.00,CLR,,0.00,WeatherDisplay:10.37,2013-06-29 12:58:00,
2013-06-29 09:03:00,83.7,65.3,29.61,West,270,2.3,0.0,54,0.00,CLR,,0.00,WeatherDisplay:10.37,2013-06-29 13:03:00,
2013-06-29 09:08:00,84.2,65.8,29.61,West,270,1.1,1.1,54,0.00,CLR,,0.00,WeatherDisplay:10.37,2013-06-29 13:08:00,
2013-06-29 09:13:00,83.7,64.2,29.60,West,270,3.5,3.5,52,0.00,CLR,,0.00,WeatherDisplay:10.37,2013-06-29 13:13:00,
2013-06-29 09:18:00,83.3,63.3,29.61,West,270,2.3,2.3,51,0.00,CLR,,0.00,WeatherDisplay:10.37,2013-06-29 13:18:00,
2013-06-29 09:23:00,83.5,64.0,29.61,NW,315,3.5,3.5,52,0.00,CLR,,0.00,WeatherDisplay:10.37,2013-06-29 13:23:00,
2013-06-29 09:28:00,84.4,64.3,29.61,NW,315,2.3,2.3,51,0.00,CLR,,0.00,WeatherDisplay:10.37,2013-06-29 13:28:00,
2013-06-29 09:33:00,84.6,64.4,29.61,West,270,2.3,0.0,51,0.00,CLR,,0.00,WeatherDisplay:10.37,2013-06-29 13:33:00,
2013-06-29 09:38:00,86.2,64.8,29.61,South,180,1.1,1.1,49,0.00,CLR,,0.00,WeatherDisplay:10.37,2013-06-29 13:38:00,
2013-06-29 09:43:00,85.6,64.3,29.61,SW,225,3.5,3.5,49,0.00,CLR,,0.00,WeatherDisplay:10.37,2013-06-29 13:43:00,
2013-06-29 09:48:00,85.3,64.5,29.61,NE,45,3.5,0.0,50,0.00,CLR,,0.00,WeatherDisplay:10.37,2013-06-29 13:48:00,
2013-06-29 09:53:00,85.6,63.1,29.61,SE,135,3.5,0.0,47,0.00,CLR,,0.00,WeatherDisplay:10.37,2013-06-29 13:53:00,
2013-06-29 09:58:00,84.9,64.2,29.61,West,270,3.5,3.5,50,0.00,CLR,,0.00,WeatherDisplay:10.37,2013-06-29 13:58:00,
2013-06-29 10:03:00,83.5,63.4,29.61,West,270,3.5,3.5,51,0.00,CLR,,0.00,WeatherDisplay:10.37,2013-06-29 14:03:00,
2013-06-29 10:08:00,84.4,64.8,29.61,West,270,2.3,2.3,52,0.00,CLR,,0.00,WeatherDisplay:10.37,2013-06-29 14:08:00,
2013-06-29 10:13:00,84.9,64.2,29.61,West,270,3.5,3.5,50,0.00,CLR,,0.00,WeatherDisplay:10.37,2013-06-29 14:13:00,
2013-06-29 10:18:00,84.9,64.2,29.61,West,270,4.6,4.6,50,0.00,CLR,,0.00,WeatherDisplay:10.37,2013-06-29 14:18:00,
2013-06-29 10:23:00,85.5,64.1,29.61,West,270,3.5,3.5,49,0.00,CLR,,0.00,WeatherDisplay:10.37,2013-06-29 14:23:00,
2013-06-29 10:28:00,85.6,64.3,29.61,West,270,1.1,1.1,49,0.00,CLR,,0.00,WeatherDisplay:10.37,2013-06-29 14:28:00,
2013-06-29 10:33:00,86.0,64.6,29.61,West,270,2.3,2.3,49,0.00,CLR,,0.00,WeatherDisplay:10.37,2013-06-29 14:33:00,
2013-06-29 10:38:00,86.5,64.5,29.61,SW,225,4.6,4.6,48,0.00,CLR,,0.00,WeatherDisplay:10.37,2013-06-29 14:38:00,
2013-06-29 10:43:00,86.2,64.2,29.60,West,270,3.5,3.5,48,0.00,CLR,,0.00,WeatherDisplay:10.37,2013-06-29 14:43:00,
2013-06-29 10:48:00,85.6,64.3,29.61,SW,225,3.5,3.5,49,0.00,CLR,,0.00,WeatherDisplay:10.37,2013-06-29 14:48:00,
2013-06-29 10:53:00,85.3,63.4,29.61,West,270,3.5,3.5,48,0.00,CLR,,0.00,WeatherDisplay:10.37,2013-06-29 14:53:00,
2013-06-29 10:58:00,85.5,63.5,29.60,West,270,2.3,2.3,48,0.00,CLR,,0.00,WeatherDisplay:10.37,2013-06-29 14:58:00,
2013-06-29 11:03:00,85.6,63.7,29.61,West,270,3.5,3.5,48,0.00,SCT,,0.00,WeatherDisplay:10.37,2013-06-29 15:03:00,
2013-06-29 11:08:00,85.8,63.3,29.61,West,270,3.5,3.5,47,0.00,SCT,,0.00,WeatherDisplay:10.37,2013-06-29 15:08:00,
2013-06-29 11:13:00,86.4,64.4,29.61,South,180,3.1,3.1,48,0.00,SCT,,0.00,WeatherDisplay:10.37,2013-06-29 15:13:00,
2013-06-29 11:18:00,86.2,64.2,29.61,West,270,3.8,3.8,48,0.00,SCT,,0.00,WeatherDisplay:10.37,2013-06-29 15:18:00,
2013-06-29 11:23:00,86.4,64.9,29.61,SW,225,2.3,2.3,49,0.00,SCT,,0.00,WeatherDisplay:10.37,2013-06-29 15:23:00,
2013-06-29 11:28:00,86.2,63.6,29.61,West,270,2.3,2.3,47,0.00,SCT,,0.00,WeatherDisplay:10.37,2013-06-29 15:28:00,
2013-06-29 11:33:00,86.4,64.9,29.61,West,270,1.1,1.1,49,0.00,SCT,,0.00,WeatherDisplay:10.37,2013-06-29 15:33:00,
2013-06-29 11:38:00,86.4,64.4,29.60,West,270,2.3,0.0,48,0.00,SCT,,0.00,WeatherDisplay:10.37,2013-06-29 15:38:00,
2013-06-29 11:43:00,86.7,64.7,29.61,West,270,1.1,0.0,48,0.00,SCT,,0.00,WeatherDisplay:10.37,2013-06-29 15:43:00,
2013-06-29 11:48:00,86.7,64.7,29.61,West,270,2.3,2.3,48,0.00,SCT,,0.00,WeatherDisplay:10.37,2013-06-29 15:48:00,
2013-06-29 11:53:00,87.3,64.0,29.61,West,270,3.5,3.5,46,0.00,SCT,,0.00,WeatherDisplay:10.37,2013-06-29 15:53:00,
2013-06-29 11:58:00,87.8,65.1,29.61,SW,225,3.1,3.1,47,0.00,SCT,,0.00,WeatherDisplay:10.37,2013-06-29 15:58:00,
2013-06-29 12:03:00,87.1,64.4,29.61,West,270,3.5,3.5,47,0.00,FEW,,0.00,WeatherDisplay:10.37,2013-06-29 16:03:00,
2013-06-29 12:08:00,86.5,63.3,29.61,West,270,2.3,0.0,46,0.00,FEW,,0.00,WeatherDisplay:10.37,2013-06-29 16:08:00,
2013-06-29 12:13:00,86.2,63.6,29.61,West,270,2.3,0.0,47,0.00,FEW,,0.00,WeatherDisplay:10.37,2013-06-29 16:13:00,
2013-06-29 12:18:00,86.7,65.3,29.62,West,270,3.5,3.5,49,0.00,FEW,,0.00,WeatherDisplay:10.37,2013-06-29 16:18:00,
2013-06-29 12:23:00,87.3,63.3,29.62,SW,225,3.5,3.5,45,0.00,FEW,,0.00,WeatherDisplay:10.37,2013-06-29 16:23:00,
2013-06-29 12:28:00,87.6,63.0,29.61,West,270,3.5,3.5,44,0.00,FEW,,0.00,WeatherDisplay:10.37,2013-06-29 16:28:00,
2013-06-29 12:33:00,87.3,63.3,29.61,SW,225,2.3,2.3,45,0.00,FEW,,0.00,WeatherDisplay:10.37,2013-06-29 16:33:00,
2013-06-29 12:38:00,87.1,61.9,29.61,West,270,1.1,0.0,43,0.00,FEW,,0.00,WeatherDisplay:10.37,2013-06-29 16:38:00,
2013-06-29 12:43:00,87.4,62.8,29.60,West,270,3.5,3.5,44,0.00,FEW,,0.00,WeatherDisplay:10.37,2013-06-29 16:43:00,
2013-06-29 12:48:00,87.3,63.3,29.60,West,270,2.3,2.3,45,0.00,FEW,,0.00,WeatherDisplay:10.37,2013-06-29 16:48:00,
2013-06-29 12:53:00,87.6,63.0,29.60,West,270,1.1,0.0,44,0.00,FEW,,0.00,WeatherDisplay:10.37,2013-06-29 16:53:00,
2013-06-29 12:58:00,87.1,62.5,29.60,SW,225,3.5,3.5,44,0.00,FEW,,0.00,WeatherDisplay:10.37,2013-06-29 16:58:00,
2013-06-29 13:03:00,87.1,64.4,29.60,NW,315,5.8,5.8,47,0.00,SCT,,0.00,WeatherDisplay:10.37,2013-06-29 17:03:00,
2013-06-29 13:08:00,87.4,64.1,29.60,South,180,2.3,2.3,46,0.00,SCT,,0.00,WeatherDisplay:10.37,2013-06-29 17:08:00,
2013-06-29 13:13:00,87.4,62.8,29.60,SW,225,3.5,0.0,44,0.00,SCT,,0.00,WeatherDisplay:10.37,2013-06-29 17:13:00,
2013-06-29 13:18:00,87.3,60.7,29.61,West,270,3.5,3.5,41,0.00,SCT,,0.00,WeatherDisplay:10.37,2013-06-29 17:18:00,
2013-06-29 13:23:00,87.4,62.8,29.60,West,270,2.3,2.3,44,0.00,SCT,,0.00,WeatherDisplay:10.37,2013-06-29 17:23:00,
2013-06-29 13:28:00,87.3,62.7,29.60,West,270,2.3,2.3,44,0.00,SCT,,0.00,WeatherDisplay:10.37,2013-06-29 17:28:00,
2013-06-29 13:33:00,87.6,63.0,29.60,NW,315,1.1,0.0,44,0.00,SCT,,0.00,WeatherDisplay:10.37,2013-06-29 17:33:00,
2013-06-29 13:38:00,87.6,61.0,29.60,West,270,2.3,2.3,41,0.00,SCT,,0.00,WeatherDisplay:10.37,2013-06-29 17:38:00,
2013-06-29 13:43:00,86.9,60.4,29.60,West,270,1.1,0.0,41,0.00,SCT,,0.00,WeatherDisplay:10.37,2013-06-29 17:43:00,
2013-06-29 13:48:00,87.1,63.2,29.60,SW,225,3.5,3.5,45,0.00,SCT,,0.00,WeatherDisplay:10.37,2013-06-29 17:48:00,
2013-06-29 13:53:00,87.6,61.7,29.60,West,270,1.1,1.1,42,0.00,SCT,,0.00,WeatherDisplay:10.37,2013-06-29 17:53:00,
2013-06-29 13:58:00,87.8,61.2,29.60,North,0,1.1,0.0,41,0.00,SCT,,0.00,WeatherDisplay:10.37,2013-06-29 17:58:00,
2013-06-29 14:03:00,88.3,61.0,29.60,West,270,1.1,0.0,40,0.00,FEW,,0.00,WeatherDisplay:10.37,2013-06-29 18:03:00,
2013-06-29 14:08:00,88.7,61.3,29.60,West,270,1.1,1.1,40,0.00,FEW,,0.00,WeatherDisplay:10.37,2013-06-29 18:08:00,
2013-06-29 14:13:00,89.1,60.1,29.60,South,180,5.8,5.8,38,0.00,FEW,,0.00,WeatherDisplay:10.37,2013-06-29 18:13:00,
2013-06-29 14:18:00,88.5,60.4,29.60,West,270,1.1,1.1,39,0.00,FEW,,0.00,WeatherDisplay:10.37,2013-06-29 18:18:00,
2013-06-29 14:23:00,89.1,62.3,29.60,SW,225,2.3,2.3,41,0.00,FEW,,0.00,WeatherDisplay:10.37,2013-06-29 18:23:00,
2013-06-29 14:28:00,88.9,63.5,29.60,NW,315,3.5,3.5,43,0.00,FEW,,0.00,WeatherDisplay:10.37,2013-06-29 18:28:00,
2013-06-29 14:33:00,88.5,62.5,29.60,NW,315,1.1,0.0,42,0.00,FEW,,0.00,WeatherDisplay:10.37,2013-06-29 18:33:00,
2013-06-29 14:38:00,88.0,62.7,29.60,SW,225,1.1,0.0,43,0.00,FEW,,0.00,WeatherDisplay:10.37,2013-06-29 18:38:00,
2013-06-29 14:43:00,88.9,64.1,29.60,West,270,2.3,2.3,44,0.00,FEW,,0.00,WeatherDisplay:10.37,2013-06-29 18:43:00,
2013-06-29 14:48:00,88.0,62.0,29.60,NW,315,1.1,0.0,42,0.00,FEW,,0.00,WeatherDisplay:10.37,2013-06-29 18:48:00,
2013-06-29 14:53:00,87.1,63.2,29.59,West,270,1.1,0.0,45,0.00,FEW,,0.00,WeatherDisplay:10.37,2013-06-29 18:53:00,
2013-06-29 14:58:00,88.3,64.9,29.60,NW,315,2.3,0.0,46,0.00,FEW,,0.00,WeatherDisplay:10.37,2013-06-29 18:58:00,
2013-06-29 15:03:00,88.7,62.7,29.60,NW,315,2.3,2.3,42,0.00,CLR,,0.00,WeatherDisplay:10.37,2013-06-29 19:03:00,
2013-06-29 15:08:00,89.4,64.6,29.60,NW,315,3.5,0.0,44,0.00,CLR,,0.00,WeatherDisplay:10.37,2013-06-29 19:08:00,
2013-06-29 15:13:00,90.3,62.7,29.59,West,270,4.6,4.6,40,0.00,CLR,,0.00,WeatherDisplay:10.37,2013-06-29 19:13:00,
2013-06-29 15:18:00,90.3,64.8,29.59,NW,315,2.3,2.3,43,0.00,CLR,,0.00,WeatherDisplay:10.37,2013-06-29 19:18:00,
2013-06-29 15:23:00,90.0,64.5,29.60,NNW,338,3.5,3.5,43,0.00,CLR,,0.00,WeatherDisplay:10.37,2013-06-29 19:23:00,
2013-06-29 15:28:00,90.3,63.4,29.59,SW,225,5.8,5.8,41,0.00,CLR,,0.00,WeatherDisplay:10.37,2013-06-29 19:28:00,
2013-06-29 15:33:00,89.8,62.2,29.59,North,0,8.1,0.0,40,0.00,CLR,,0.00,WeatherDisplay:10.37,2013-06-29 19:33:00,
2013-06-29 15:38:00,89.8,63.6,29.59,NW,315,3.5,3.5,42,0.00,CLR,,0.00,WeatherDisplay:10.37,2013-06-29 19:38:00,
2013-06-29 15:43:00,90.3,64.1,29.59,SW,225,1.1,0.0,42,0.00,CLR,,0.00,WeatherDisplay:10.37,2013-06-29 19:43:00,
2013-06-29 15:48:00,90.0,61.7,29.59,NW,315,1.1,0.0,39,0.00,CLR,,0.00,WeatherDisplay:10.37,2013-06-29 19:48:00,
2013-06-29 15:53:00,90.7,63.0,29.59,West,270,1.1,0.0,40,0.00,CLR,,0.00,WeatherDisplay:10.37,2013-06-29 19:53:00,
2013-06-29 15:58:00,90.9,63.9,29.59,NW,315,3.5,3.5,41,0.00,CLR,,0.00,WeatherDisplay:10.37,2013-06-29 19:58:00,
2013-06-29 16:03:00,90.0,64.5,29.59,SE,135,3.5,3.5,43,0.00,BKN,,0.00,WeatherDisplay:10.37,2013-06-29 20:03:00,
2013-06-29 16:08:00,89.2,63.8,29.59,West,270,0.0,0.0,43,0.00,BKN,,0.00,WeatherDisplay:10.37,2013-06-29 20:08:00,
2013-06-29 16:13:00,89.1,64.3,29.59,West,270,3.5,3.5,44,0.00,BKN,,0.00,WeatherDisplay:10.37,2013-06-29 20:13:00,
2013-06-29 16:18:00,88.2,62.2,29.59,North,0,3.5,0.0,42,0.00,BKN,,0.00,WeatherDisplay:10.37,2013-06-29 20:18:00,
2013-06-29 16:23:00,87.8,63.2,29.59,NW,315,2.3,0.0,44,0.00,BKN,,0.00,WeatherDisplay:10.37,2013-06-29 20:23:00,
2013-06-29 16:28:00,87.3,61.4,29.59,West,270,3.5,0.0,42,0.00,BKN,,0.00,WeatherDisplay:10.37,2013-06-29 20:28:00,
2013-06-29 16:33:00,86.9,61.7,29.59,West,270,4.6,4.6,43,0.00,BKN,,0.00,WeatherDisplay:10.37,2013-06-29 20:33:00,
2013-06-29 16:38:00,86.5,63.3,29.59,NW,315,2.3,2.3,46,0.00,BKN,,0.00,WeatherDisplay:10.37,2013-06-29 20:38:00,
2013-06-29 16:43:00,86.5,61.4,29.59,NW,315,1.1,0.0,43,0.00,BKN,,0.00,WeatherDisplay:10.37,2013-06-29 20:43:00,
2013-06-29 16:48:00,86.4,61.2,29.59,North,0,3.5,3.5,43,0.00,BKN,,0.00,WeatherDisplay:10.37,2013-06-29 20:48:00,
2013-06-29 16:53:00,86.2,63.0,29.59,West,270,2.3,2.3,46,0.00,BKN,,0.00,WeatherDisplay:10.37,2013-06-29 20:53:00,
2013-06-29 16:58:00,86.2,61.7,29.59,North,0,5.8,0.0,44,0.00,BKN,,0.00,WeatherDisplay:10.37,2013-06-29 20:58:00,
2013-06-29 17:03:00,86.5,63.9,29.59,West,270,3.5,3.5,47,0.00,FEW,,0.00,WeatherDisplay:10.37,2013-06-29 21:03:00,
2013-06-29 17:08:00,86.2,63.0,29.59,West,270,1.1,0.0,46,0.00,FEW,,0.00,WeatherDisplay:10.37,2013-06-29 21:08:00,
2013-06-29 17:13:00,86.0,64.6,29.59,SW,225,1.1,0.0,49,0.00,FEW,,0.00,WeatherDisplay:10.37,2013-06-29 21:13:00,
2013-06-29 17:18:00,85.6,64.3,29.59,West,270,2.3,2.3,49,0.00,FEW,,0.00,WeatherDisplay:10.37,2013-06-29 21:18:00,
2013-06-29 17:23:00,85.3,63.4,29.59,West,270,1.1,0.0,48,0.00,FEW,,0.00,WeatherDisplay:10.37,2013-06-29 21:23:00,
2013-06-29 17:28:00,85.1,64.4,29.59,SE,135,1.1,0.0,50,0.00,FEW,,0.00,WeatherDisplay:10.37,2013-06-29 21:28:00,
2013-06-29 17:33:00,84.7,65.2,29.59,East,90,1.1,1.1,52,0.00,FEW,,0.00,WeatherDisplay:10.37,2013-06-29 21:33:00,
2013-06-29 17:38:00,84.4,64.3,29.59,West,270,1.1,0.0,51,0.00,FEW,,0.00,WeatherDisplay:10.37,2013-06-29 21:38:00,
2013-06-29 17:43:00,84.4,64.3,29.59,East,90,1.1,0.0,51,0.00,FEW,,0.00,WeatherDisplay:10.37,2013-06-29 21:43:00,
2013-06-29 17:48:00,84.4,64.8,29.59,East,90,1.1,0.0,52,0.00,FEW,,0.00,WeatherDisplay:10.37,2013-06-29 21:48:00,
2013-06-29 17:53:00,84.6,65.0,29.59,South,180,1.1,0.0,52,0.00,FEW,,0.00,WeatherDisplay:10.37,2013-06-29 21:53:00,
2013-06-29 17:58:00,85.3,65.1,29.59,SE,135,2.3,2.3,51,0.00,FEW,,0.00,WeatherDisplay:10.37,2013-06-29 21:58:00,
2013-06-29 18:03:00,85.5,64.7,29.59,West,270,3.5,0.0,50,0.00,BKN,,0.00,WeatherDisplay:10.37,2013-06-29 22:03:00,
2013-06-29 18:08:00,85.1,64.4,29.59,East,90,2.3,2.3,50,0.00,BKN,,0.00,WeatherDisplay:10.37,2013-06-29 22:08:00,
2013-06-29 18:13:00,84.9,65.3,29.59,East,90,1.1,0.0,52,0.00,BKN,,0.00,WeatherDisplay:10.37,2013-06-29 22:13:00,
2013-06-29 18:18:00,84.7,64.6,29.59,NE,45,1.6,1.6,51,0.00,BKN,,0.00,WeatherDisplay:10.37,2013-06-29 22:18:00,
2013-06-29 18:23:00,84.6,65.0,29.59,SW,225,3.5,0.0,52,0.00,BKN,,0.00,WeatherDisplay:10.37,2013-06-29 22:23:00,
2013-06-29 18:28:00,84.4,65.4,29.59,South,180,1.1,0.0,53,0.00,BKN,,0.00,WeatherDisplay:10.37,2013-06-29 22:28:00,
2013-06-29 18:33:00,84.4,64.8,29.59,West,270,2.3,2.3,52,0.00,BKN,,0.00,WeatherDisplay:10.37,2013-06-29 22:33:00,
2013-06-29 18:38:00,84.4,65.4,29.59,SE,135,0.0,0.0,53,0.00,BKN,,0.00,WeatherDisplay:10.37,2013-06-29 22:38:00,
2013-06-29 18:43:00,84.4,65.4,29.60,NW,315,1.1,0.0,53,0.00,BKN,,0.00,WeatherDisplay:10.37,2013-06-29 22:43:00,
2013-06-29 18:48:00,84.2,64.7,29.60,East,90,1.1,0.0,52,0.00,BKN,,0.00,WeatherDisplay:10.37,2013-06-29 22:48:00,
2013-06-29 18:53:00,84.2,65.2,29.60,NW,315,1.1,0.0,53,0.00,BKN,,0.00,WeatherDisplay:10.37,2013-06-29 22:53:00,
2013-06-29 18:58:00,83.7,65.3,29.61,West,270,1.1,1.1,54,0.00,BKN,,0.00,WeatherDisplay:10.37,2013-06-29 22:58:00,
2013-06-29 19:03:00,83.1,65.3,29.61,East,90,1.1,0.0,55,0.00,BKN,,0.00,WeatherDisplay:10.37,2013-06-29 23:03:00,
2013-06-29 19:08:00,82.8,66.0,29.61,NW,315,0.0,0.0,57,0.00,BKN,,0.00,WeatherDisplay:10.37,2013-06-29 23:08:00,
2013-06-29 19:13:00,82.6,65.8,29.61,SE,135,1.1,0.0,57,0.00,BKN,,0.00,WeatherDisplay:10.37,2013-06-29 23:13:00,
2013-06-29 19:18:00,82.2,65.5,29.62,SE,135,1.1,0.0,57,0.00,BKN,,0.00,WeatherDisplay:10.37,2013-06-29 23:18:00,
2013-06-29 19:23:00,81.9,65.6,29.61,SE,135,1.1,0.0,58,0.00,BKN,,0.00,WeatherDisplay:10.37,2013-06-29 23:23:00,
2013-06-29 19:28:00,81.7,66.0,29.62,SE,135,1.1,0.0,59,0.00,BKN,,0.00,WeatherDisplay:10.37,2013-06-29 23:28:00,
2013-06-29 19:33:00,81.3,66.1,29.63,West,270,1.1,0.0,60,0.00,BKN,,0.00,WeatherDisplay:10.37,2013-06-29 23:33:00,
2013-06-29 19:38:00,80.4,67.1,29.64,West,270,2.3,2.3,64,0.00,BKN,,0.00,WeatherDisplay:10.37,2013-06-29 23:38:00,
2013-06-29 19:43:00,79.5,67.6,29.65,West,270,3.5,3.5,67,0.00,BKN,,0.00,WeatherDisplay:10.37,2013-06-29 23:43:00,
2013-06-29 19:48:00,78.1,67.9,29.65,West,270,8.1,8.1,71,0.00, +RA,,0.00,WeatherDisplay:10.37,2013-06-29 23:48:00,
2013-06-29 19:53:00,76.1,68.4,29.65,West,270,4.6,4.6,77,0.00, +RA,,0.00,WeatherDisplay:10.37,2013-06-29 23:53:00,
2013-06-29 19:58:00,73.9,68.4,29.66,North,0,1.1,0.0,83,0.05, +RA,,0.05,WeatherDisplay:10.37,2013-06-29 23:58:00,
2013-06-29 20:03:00,73.0,68.3,29.65,West,270,1.1,0.0,85,0.06, +RA,,0.06,WeatherDisplay:10.37,2013-06-30 00:03:00,
2013-06-29 20:08:00,72.3,69.2,29.65,NW,315,3.5,0.0,90,0.06, +RA,,0.06,WeatherDisplay:10.37,2013-06-30 00:08:00,
2013-06-29 20:13:00,71.8,69.0,29.65,SW,225,1.1,0.0,91,0.06, +RA,,0.06,WeatherDisplay:10.37,2013-06-30 00:13:00,
2013-06-29 20:18:00,71.6,69.8,29.66,East,90,3.5,3.5,94,0.06,-RA,,0.06,WeatherDisplay:10.37,2013-06-30 00:18:00,
2013-06-29 20:23:00,71.2,70.0,29.66,East,90,3.5,3.5,96,0.06,-RA,,0.06,WeatherDisplay:10.37,2013-06-30 00:23:00,
2013-06-29 20:25:00,71.2,70.0,29.66,East,90,3.5,3.5,96,0.06,-RA,,0.06,WeatherDisplay:10.37,2013-06-30 00:25:00,
2013-06-29 20:30:00,70.9,70.0,29.66,SE,135,2.3,2.3,97,0.06,-RA,,0.06,WeatherDisplay:10.37,2013-06-30 00:30:00,
2013-06-29 20:35:00,70.5,69.3,29.67,East,90,2.3,2.3,96,0.06,-RA,,0.06,WeatherDisplay:10.37,2013-06-30 00:35:00,
2013-06-29 20:40:00,70.3,69.4,29.66,North,0,1.1,0.0,97,0.06,-RA,,0.06,WeatherDisplay:10.37,2013-06-30 00:40:00,
2013-06-29 20:45:00,70.2,69.3,29.66,SE,135,0.0,0.0,97,0.06,-RA,,0.06,WeatherDisplay:10.37,2013-06-30 00:45:00,
2013-06-29 20:50:00,70.0,69.1,29.65,SE,135,0.0,0.0,97,0.06,-RA,,0.06,WeatherDisplay:10.37,2013-06-30 00:50:00,
2013-06-29 20:55:00,69.8,68.9,29.66,SE,135,0.0,0.0,97,0.06,-RA,,0.06,WeatherDisplay:10.37,2013-06-30 00:55:00,
2013-06-29 21:00:00,69.4,68.6,29.66,West,270,0.0,0.0,97,0.06,-RA,,0.06,WeatherDisplay:10.37,2013-06-30 01:00:00,
2013-06-29 21:05:00,69.3,68.7,29.66,West,270,0.0,0.0,98,0.06,-RA,,0.06,WeatherDisplay:10.37,2013-06-30 01:05:00,
2013-06-29 21:10:00,69.3,68.7,29.67,West,270,0.0,0.0,98,0.06,-RA,,0.06,WeatherDisplay:10.37,2013-06-30 01:10:00,
2013-06-29 21:15:00,69.3,69.0,29.67,West,270,0.0,0.0,99,0.01,-RA,,0.06,WeatherDisplay:10.37,2013-06-30 01:15:00,
2013-06-29 21:20:00,69.1,68.8,29.67,West,270,0.0,0.0,99,0.00,FEW,,0.06,WeatherDisplay:10.37,2013-06-30 01:20:00,
2013-06-29 21:25:00,69.1,68.8,29.67,West,270,0.0,0.0,99,0.00,FEW,,0.06,WeatherDisplay:10.37,2013-06-30 01:25:00,
2013-06-29 21:30:00,69.1,68.8,29.67,West,270,0.0,0.0,99,0.00,FEW,,0.06,WeatherDisplay:10.37,2013-06-30 01:30:00,
2013-06-29 21:35:00,69.1,68.8,29.68,West,270,0.0,0.0,99,0.00,FEW,,0.06,WeatherDisplay:10.37,2013-06-30 01:35:00,
2013-06-29 21:40:00,69.1,68.8,29.68,West,270,0.0,0.0,99,0.00,FEW,,0.06,WeatherDisplay:10.37,2013-06-30 01:40:00,
2013-06-29 21:45:00,69.1,68.8,29.68,West,270,0.0,0.0,99,0.00,FEW,,0.06,WeatherDisplay:10.37,2013-06-30 01:45:00,
2013-06-29 21:50:00,69.1,68.8,29.68,East,90,1.1,0.0,99,0.00,FEW,,0.06,WeatherDisplay:10.37,2013-06-30 01:50:00,
2013-06-29 21:55:00,69.1,68.8,29.69,East,90,0.0,0.0,99,0.00,FEW,,0.06,WeatherDisplay:10.37,2013-06-30 01:55:00,
2013-06-29 22:00:00,69.1,68.8,29.69,East,90,0.0,0.0,99,0.00,FEW,,0.06,WeatherDisplay:10.37,2013-06-30 02:00:00,
2013-06-29 22:05:00,69.1,68.8,29.70,SW,225,1.1,0.0,99,0.00,FEW,,0.06,WeatherDisplay:10.37,2013-06-30 02:05:00,
2013-06-29 22:10:00,69.1,68.8,29.70,NW,315,1.1,0.0,99,0.00,FEW,,0.06,WeatherDisplay:10.37,2013-06-30 02:10:00,
2013-06-29 22:15:00,69.1,68.8,29.70,West,270,1.1,0.0,99,0.00,FEW,,0.06,WeatherDisplay:10.37,2013-06-30 02:15:00,
2013-06-29 22:20:00,69.1,68.8,29.70,West,270,0.0,0.0,99,0.00,FEW,,0.06,WeatherDisplay:10.37,2013-06-30 02:20:00,
2013-06-29 22:25:00,68.9,68.6,29.69,West,270,0.0,0.0,99,0.00,FEW,,0.06,WeatherDisplay:10.37,2013-06-30 02:25:00,
2013-06-29 22:30:00,68.7,68.4,29.69,West,270,0.0,0.0,99,0.00,FEW,,0.06,WeatherDisplay:10.37,2013-06-30 02:30:00,
2013-06-29 22:35:00,68.7,68.4,29.69,NW,315,0.0,0.0,99,0.00,FEW,,0.06,WeatherDisplay:10.37,2013-06-30 02:35:00,
2013-06-29 22:40:00,68.5,68.2,29.69,NW,315,0.0,0.0,99,0.00,FEW,,0.06,WeatherDisplay:10.37,2013-06-30 02:40:00,
2013-06-29 22:45:00,68.4,68.1,29.69,NW,315,0.0,0.0,99,0.00,FEW,,0.06,WeatherDisplay:10.37,2013-06-30 02:45:00,
2013-06-29 22:50:00,68.4,68.1,29.70,East,90,1.1,1.1,99,0.00,FEW,,0.06,WeatherDisplay:10.37,2013-06-30 02:50:00,
2013-06-29 22:55:00,68.4,68.1,29.70,NE,45,1.1,0.0,99,0.00,FEW,,0.06,WeatherDisplay:10.37,2013-06-30 02:55:00,
2013-06-29 23:00:00,68.4,68.1,29.70,East,90,2.3,2.3,99,0.00,FEW,,0.06,WeatherDisplay:10.37,2013-06-30 03:00:00,
2013-06-29 23:05:00,68.4,68.1,29.70,East,90,1.1,0.0,99,0.01,RA,,0.07,WeatherDisplay:10.37,2013-06-30 03:05:00,
2013-06-29 23:10:00,68.4,68.1,29.70,East,90,0.0,0.0,99,0.01,RA,,0.07,WeatherDisplay:10.37,2013-06-30 03:10:00,
2013-06-29 23:15:00,68.2,67.9,29.70,East,90,1.1,0.0,99,0.01,SCT,,0.07,WeatherDisplay:10.37,2013-06-30 03:15:00,
2013-06-29 23:20:00,68.2,67.9,29.70,East,90,2.3,0.0,99,0.01,SCT,,0.07,WeatherDisplay:10.37,2013-06-30 03:20:00,
2013-06-29 23:25:00,68.2,67.9,29.71,SE,135,1.1,1.6,99,0.01,SCT,,0.07,WeatherDisplay:10.37,2013-06-30 03:25:00,
2013-06-29 23:30:00,68.4,68.1,29.71,East,90,1.1,0.0,99,0.01,SCT,,0.07,WeatherDisplay:10.37,2013-06-30 03:30:00,
2013-06-29 23:35:00,68.4,68.1,29.71,SE,135,2.3,0.0,99,0.01,SCT,,0.07,WeatherDisplay:10.37,2013-06-30 03:35:00,
2013-06-29 23:40:00,68.5,68.2,29.73,SW,225,1.1,0.0,99,0.01,SCT,,0.07,WeatherDisplay:10.37,2013-06-30 03:40:00,
2013-06-29 23:45:00,68.5,68.2,29.72,North,0,1.1,0.0,99,0.01,SCT,,0.07,WeatherDisplay:10.37,2013-06-30 03:45:00,
2013-06-29 23:50:00,68.5,68.2,29.72,SW,225,1.1,0.0,99,0.01,SCT,,0.07,WeatherDisplay:10.37,2013-06-30 03:50:00,
2013-06-29 23:55:00,68.5,68.2,29.71,NE,45,2.3,0.0,99,0.01,SCT,,0.07,WeatherDisplay:10.37,2013-06-30 03:55:00,